Hourly Data Report for January 04, 2012

HALIFAX STANFIELD INT'L A
NOVA SCOTIA

44°52'48.060" N
63°30'00.050" W
145.40 m
8202250
71395
YHZ

Download Data

Hourly Data (January 2012)
Hourly Data Report for January 4, 2012
TIME
LST
Temp Definition
°C
Dew Point Definition
°C
Rel Hum Definition
%
Precip. Amount Definition
mm

Wind Dir Definition
10's deg

Wind Spd Definition
km/h
Visibility Definition
km
Stn Press Definition
kPa
Hmdx Definition


Wind Chill Definition


Weather Definition


00:00 -4.1 -8.2 73   1 24 24.1 98.87   -11 Cloudy
01:00 -5.8 -10.1 72   1 22 24.1 98.86   -13 Cloudy
02:00 -7.2 -10.6 77   36 33 24.1 98.79   -16 Cloudy
03:00 -7.8 -10.8 79   36 24 24.1 98.84   -16 Cloudy
04:00 -8.8 -12.0 78   35 30 24.1 98.77   -18 Cloudy
05:00 -10.0 -13.1 78   33 37 24.1 98.69   -20 Cloudy
06:00 -11.1 -13.5 82   34 33 24.1 98.65   -21 Cloudy
07:00 -11.6 -14.1 82   34 39 24.1 98.66   -23 Cloudy
08:00 -11.7 -14.0 83   33 28 24.1 98.66   -21 Cloudy
09:00 -11.3 -13.9 81   34 32 19.3 98.76   -22 Snow Showers
10:00 -11.2 -14.1 79   32 30 19.3 98.74   -21 Snow Showers
11:00 -11.0 -14.0 78   32 33 16.1 98.69   -21 Snow Showers
12:00 -10.1 -13.6 76   33 28 16.1 98.65   -19 Snow Showers
13:00 -8.6 -12.7 72   33 32 24.1 98.57   -18 Snow Showers
14:00 -7.9 -11.6 75   31 28 16.1 98.61   -17 Snow Showers
15:00 -7.9 -11.7 74   31 28 11.3 98.71   -17 Snow Showers
16:00 -8.3 -11.8 76   31 32 16.1 98.83   -18 Snow Showers
17:00 -8.5 -12.0 76   29 17 12.9 98.92   -15 Snow Showers
18:00 -8.2 -10.5 83   28 13 9.7 99.02   -14 Snow Showers
19:00 -8.5 -11.3 80   27 24 12.9 99.10   -17 Snow Showers
20:00 -8.9 -12.3 76   27 22 11.3 99.20   -17 Snow Showers
21:00 -8.9 -11.9 79   27 11 14.5 99.19   -14 Snow Showers
22:00 -8.5 -11.4 80   25 17 14.5 99.24   -15 Snow Showers
23:00 -9.3 -11.5 84   27 9 16.1 99.19   -14 Snow Showers

Notes on Data Quality.

Legend

  • E = Estimated
  • M = Missing
  • NA = Not Available*
  • [empty] = Indicates an unobserved value
Date modified: